[[{"header":{"parameterUnit":"m.s-1","parameterCategory":1,"la1":30.2991,"la2":30.254,"lo1":-89.0895,"lo2":-89.0444,"dy":0.0017,"dx":0.0017,"nx":28,"ny":28,"refTime":"2024-03-08T09:00:00:Z","depth":0,"parameterNumber":2,"parameterNumberName":"U-component_of_WINDS"},"data":[0,0,0,0,0,0,0,0,0,0,0,0,0,0,0,0,0,0,0,0,0,0,0,0,0,0,0,0,0,0,0,0,0,0,0,0,0,0,0,0,0,0,0,0,0,0,0,0,0,0,0,0,0,0,0,0,0,0,-7.991,-7.9912,0,-8.0115,-8.0117,-8.0119,-8.0148,-8.0146,-8.0144,-8.0142,-8.0344,-8.0351,-8.0358,0,0,0,0,0,0,0,0,0,0,0,0,0,-7.9537,-7.9543,-7.9909,-7.9912,-7.9915,-8.0114,-8.0117,-8.012,-8.0148,-8.0146,-8.0144,-8.0141,-8.0342,-8.035,-8.0359,0,0,0,0,0,0,0,0,0,0,0,0,0,-7.9715,-7.9545,-7.9909,-7.9953,-7.9959,-8.0114,-8.0117,-8.0121,-8.0149,-8.0146,-8.0143,-8.014,-8.0339,-8.0349,-8.036,-8.0483,0,0,-8.0393,-8.0397,0,0,0,0,0,0,0,0,-7.9705,-7.9729,-7.9944,-7.995,-7.9957,-8.0103,-8.006,-8.0242,-8.0149,-8.0076,-8.0142,-8.0139,-8.0266,-8.0282,-8.0327,-8.0492,-8.0501,-8.0394,-8.04,-8.0405,-8.0408,0,0,0,0,0,0,0,-7.9693,-7.972,-7.999,-7.9947,-7.9955,-7.9961,-7.9983,-8.0094,-8.0184,-8.0082,-8.0085,-8.0109,-8.0269,-8.0316,-8.0332,-8.0504,-8.0393,-8.0403,-8.0409,-8.0414,-8.078,-8.0783,0,0,0,0,0,0,-7.9673,-7.971,-7.9984,-7.9996,-7.9822,-7.997,-7.9995,-8.0059,-8.0183,-8.0199,-8.0112,-8.011,-8.0299,-8.0319,-8.0339,-8.0489,-8.0405,-8.0415,-8.0421,-8.0777,-8.0781,-8.0784,0,0,0,0,0,0,-7.9665,-7.9698,-7.9976,-7.9854,-7.989,-7.9979,-8.0051,-8.0064,-8.0112,-8.0205,-8.0221,-8.0144,-8.0298,-8.0324,-8.0447,-8.0497,-8.0419,-8.0429,-8.0773,-8.0778,-8.0783,-8.0792,0,0,0,0,0,0,-7.9654,-7.9694,-7.9743,-7.9855,-7.9896,-8.0082,-8.0054,-8.007,-8.0131,-8.0131,-8.024,-8.0255,-8.0298,-8.0431,-8.0458,-8.051,-8.0438,-8.0769,-8.0775,-8.0781,-8.0788,-8.0797,-8.0805,0,0,0,0,0,-7.9641,-7.9736,-7.9745,-7.9778,-7.9959,-8.0085,-8.0108,-8.0158,-8.0135,-8.0184,-8.0244,-8.0251,-8.0488,-8.0444,-8.0474,-8.053,-8.0766,-8.0773,-8.0781,-8.0784,-8.0795,-8.0804,0,0,0,0,0,0,-7.9623,-7.9751,-7.9763,-7.9897,-7.9981,-8.0089,-8.0152,-8.0168,-8.0257,-8.0253,-8.0309,-8.0333,-8.0453,-8.0505,-8.0453,-8.0656,-8.0625,-8.0639,-8.0617,-8.0628,-8.0636,-8.0619,-8.0446,0,0,0,0,0,-7.9636,-7.9729,-7.9835,-7.9943,-7.9985,-8.0062,-8.0118,-8.015,-8.0237,-8.0271,-8.034,-8.0423,-8.0516,-8.0576,-8.0666,-8.0797,-8.082,-8.0851,-8.0859,-8.0866,-8.0876,-8.0948,-8.0962,-8.0809,-8.0809,-8.0809,0,0,-7.966,-7.9742,-7.9797,-7.9942,-8.001,-8.0103,-8.009,-8.019,-8.0259,-8.0285,-8.0406,-8.0461,-8.0556,-8.0684,-8.0743,-8.073,-8.0924,-8.0876,-8.088,-8.0886,-8.0957,-8.0971,-8.0984,-8.0814,-8.0813,-8.0812,0,0,-7.9752,-7.9825,-7.9923,-7.9993,-8.0098,-8.0149,-8.0173,-8.0281,-8.0318,-8.0442,-8.0464,-8.0547,-8.0706,-8.0774,-8.0829,-8.0951,-8.096,-8.098,-8.1022,-8.1091,-8.1103,-8.1114,-8.1156,-8.117,-8.099,-8.099,-8.099,0,-7.9768,-7.9913,-7.997,-8.007,-8.0132,-8.0165,-8.0263,-8.0328,-8.0456,-8.0497,-8.0482,-8.0684,-8.0751,-8.0894,-8.0925,-8.0969,-8.0996,-8.0965,-8.1098,-8.1109,-8.112,-8.116,-8.1176,-8.0992,-8.0991,-8.0991,-8.0991,0,-7.9927,-8.0027,-8.0093,-8.0219,-8.029,-8.0388,-8.0458,-8.0523,-8.055,-8.0602,-8.0727,-8.081,-8.0918,-8.0955,-8.0981,-8.1103,-8.1091,-8.1087,-8.1056,-8.1135,-8.1173,-8.1189,-8.0994,-8.0993,-8.0993,-8.0992,0,0,-8.0008,-8.0168,-8.0191,-8.0249,-8.037,-8.0447,-8.0547,-8.0656,-8.0709,-8.0798,-8.0881,-8.1018,-8.1015,-8.1078,-8.1112,-8.1174,-8.1264,-8.1162,-8.1165,-8.1175,-8.1401,-8.14,-8.1417,-8.1273,-8.1276,-8.1279,-8.1392,0,-8.0111,-8.0293,-8.0349,-8.05,-8.0592,-8.0627,-8.0714,-8.0796,-8.0849,-8.0934,-8.0991,-8.1086,-8.1077,-8.1115,-8.1178,-8.1239,-8.1309,-8.1233,-8.1348,-8.1351,-8.1318,-8.1438,-8.1438,-8.154,-8.1407,-8.141,-8.1412,0,-8.0255,-8.035,-8.051,-8.0621,-8.0662,-8.0739,-8.0844,-8.0926,-8.102,-8.1054,-8.1126,-8.1157,-8.1261,-8.1229,-8.1372,-8.1319,-8.137,-8.1408,-8.1413,-8.1422,-8.1383,-8.1446,-8.1574,-8.1587,-8.1436,-8.1434,-8.1433,0,-8.0294,-8.0462,-8.058,-8.0629,-8.0762,-8.0815,-8.0872,-8.0964,-8.1027,-8.1119,-8.1159,-8.1262,-8.1316,-8.1394,-8.145,-8.1422,-8.1588,-8.1561,-8.1617,-8.1615,-8.1646,-8.1642,-8.1779,-8.1686,-8.1686,-8.1685,-8.1685,0,-8.0402,-8.0498,-8.06,-8.0671,-8.078,-8.0845,-8.095,-8.1009,-8.1091,-8.1174,-8.1211,-8.1287,-8.136,-8.1446,-8.1491,-8.1602,-8.1627,-8.1655,-8.1665,-8.165,-8.1646,-8.168,-8.1673,-8.1689,-8.1689,-8.1688,-8.1687,0,-8.0461,-8.0534,-8.0665,-8.0781,-8.0813,-8.0888,-8.0986,-8.1057,-8.1113,-8.1217,-8.1246,-8.1333,-8.1436,-8.1502,-8.1633,-8.1663,-8.1784,-8.1793,-8.1752,-8.1756,-8.1807,-8.18,-8.1968,-8.1992,-8.1885,-8.1886,-8.1887,0,-8.0523,-8.0598,-8.0724,-8.0784,-8.0843,-8.0938,-8.1003,-8.107,-8.1136,-8.1252,-8.1307,-8.1414,-8.1502,-8.1665,-8.1739,-8.1839,-8.1849,-8.1902,-8.1864,-8.1846,-8.1846,-8.1839,-8.1846,-8.1905,-8.1906,-8.1907,-8.1908,0,-8.0623,-8.0657,-8.0751,-8.0858,-8.0936,-8.1023,-8.1109,-8.1156,-8.1238,-8.131,-8.1417,-8.1486,-8.1622,-8.1726,-8.1834,-8.1891,-8.1912,-8.192,-8.1938,-8.192,-8.1892,-8.1905,-8.1764,-8.1914,-8.1914,-8.1913,-8.1913,-8.1913,-8.0684,-8.0752,-8.0853,-8.0956,-8.103,-8.1111,-8.1183,-8.1251,-8.1342,-8.1459,-8.1494,-8.1606,-8.17,-8.1847,-8.1907,-8.1994,-8.1987,-8.2013,-8.2019,-8.2023,-8.2022,-8.1882,-8.2014,-8.2014,-8.2014,-8.2014,-8.2014,0,-8.0783,-8.0851,-8.0946,-8.1068,-8.115,-8.1169,-8.1266,-8.1332,-8.1431,-8.1518,-8.1606,-8.173,-8.1832,-8.1916,-8.2021,-8.2075,-8.2087,-8.21,-8.2094,-8.2107,-8.2024,-8.1997,-8.2088,-8.2088,-8.2088,-8.2088,-8.2088,-8.2088,-8.0844,-8.0961,-8.1007,-8.1161,-8.1228,-8.134,-8.1394,-8.1468,-8.1539,-8.1676,-8.1763,-8.1818,-8.1904,-8.2017,-8.2111,-8.2133,-8.2168,-8.2178,-8.2201,-8.2121,-8.2113,-8.2104,-8.2079,-8.2186,-8.2186,-8.2277,-8.2278,-8.2278]},{"header":{"parameterUnit":"m.s-1","parameterCategory":1,"la1":30.2991,"la2":30.254,"lo1":-89.0895,"lo2":-89.0444,"dy":0.0017,"dx":0.0017,"nx":28,"ny":28,"refTime":"2024-03-08T09:00:00:Z","depth":0,"parameterNumber":3,"parameterNumberName":"V-component_of_WINDS"},"data":[0,0,0,0,0,0,0,0,0,0,0,0,0,0,0,0,0,0,0,0,0,0,0,0,0,0,0,0,0,0,0,0,0,0,0,0,0,0,0,0,0,0,0,0,0,0,0,0,0,0,0,0,0,0,0,0,0,0,5.0108,5.0108,0,5.0094,5.0094,5.0093,4.9995,4.9993,4.9991,4.9988,4.9974,4.9976,4.9978,0,0,0,0,0,0,0,0,0,0,0,0,0,5.0054,5.0056,5.0108,5.0108,5.0108,5.0094,5.0094,5.0093,4.9996,4.9993,4.999,4.9987,4.9974,4.9976,4.9978,0,0,0,0,0,0,0,0,0,0,0,0,0,5.0062,5.0056,5.0108,5.0058,5.0053,5.0094,5.0094,5.0093,4.9997,4.9993,4.9989,4.9986,4.9973,4.9976,4.9978,5.0067,0,0,4.9987,4.9988,0,0,0,0,0,0,0,0,5.0062,5.0065,5.0065,5.0061,5.0056,5.0043,5.0069,5.0085,4.9997,5.0018,4.9988,4.9984,5.0,5.0,5.0006,5.0067,5.0066,4.9987,4.9989,4.999,4.9991,0,0,0,0,0,0,0,5.0062,5.0065,5.0102,5.0065,5.006,5.0036,5.0034,5.0072,5.0029,5.0016,5.0009,5.0008,4.9997,5.0003,5.0005,5.0066,4.9987,4.999,4.9991,4.9992,5.0202,5.0206,0,0,0,0,0,0,5.0068,5.0065,5.0103,5.0102,5.005,5.004,5.0037,5.0051,5.0029,5.0022,5.0011,5.0004,5.0,5.0001,5.0004,5.0108,4.999,4.9993,4.9994,5.0198,5.0203,5.0207,0,0,0,0,0,0,5.0067,5.0072,5.0103,5.0082,5.0084,5.0045,5.0061,5.0052,5.0058,5.0025,5.0017,5.0025,4.9997,5.0,5.0053,5.0106,4.9994,4.9996,5.0194,5.02,5.0205,5.0316,0,0,0,0,0,0,5.0066,5.0073,5.0105,5.0083,5.0085,5.0152,5.0064,5.0055,5.0063,5.0053,5.0036,5.003,4.9995,5.0049,5.0056,5.0108,4.9999,5.0189,5.0196,5.0203,5.0308,5.0325,5.034,0,0,0,0,0,5.0064,5.0136,5.0107,5.0112,5.0125,5.0156,5.0157,5.0115,5.0068,5.0101,5.008,5.0031,5.0099,5.0056,5.0062,5.0116,5.0185,5.0194,5.0203,5.03,5.0322,5.034,0,0,0,0,0,0,5.0165,5.0132,5.01,5.0166,5.0165,5.0139,5.0179,5.0138,5.015,5.014,5.0087,5.0084,5.0146,5.0136,5.0088,5.0202,5.0134,5.0144,5.0206,5.0226,5.0242,5.0243,5.0001,0,0,0,0,0,5.0195,5.0222,5.0192,5.0254,5.0255,5.0218,5.023,5.0197,5.0193,5.0192,5.0175,5.0173,5.0195,5.021,5.0227,5.0306,5.0302,5.0347,5.0363,5.0376,5.0386,5.0429,5.0449,5.0236,5.0236,5.0236,0,0,5.0257,5.0243,5.0263,5.0274,5.0269,5.03,5.0218,5.0252,5.0275,5.0197,5.0247,5.0235,5.023,5.0297,5.0325,5.029,5.0444,5.0388,5.0399,5.0401,5.0441,5.0461,5.0479,5.0242,5.0241,5.024,0,0,5.0386,5.0377,5.0429,5.0426,5.042,5.0395,5.0408,5.0389,5.0378,5.0427,5.0371,5.0397,5.0434,5.0434,5.0438,5.0571,5.0527,5.0578,5.0663,5.0706,5.0723,5.0738,5.0787,5.0805,5.0588,5.0588,5.0589,0,5.0464,5.0507,5.0461,5.05,5.0508,5.044,5.0494,5.0493,5.0493,5.05,5.0461,5.0509,5.05,5.0567,5.06,5.0606,5.062,5.058,5.0724,5.0738,5.0751,5.0798,5.0816,5.0595,5.0594,5.0593,5.0593,0,5.0604,5.0635,5.0678,5.0681,5.0693,5.0739,5.0702,5.072,5.0688,5.0668,5.072,5.0708,5.0723,5.0737,5.0705,5.0801,5.0779,5.0733,5.0664,5.0779,5.0822,5.0839,5.0604,5.0602,5.06,5.0598,0,0,5.0794,5.0773,5.0789,5.0791,5.0781,5.0804,5.0848,5.0864,5.0881,5.0884,5.0921,5.0956,5.0914,5.092,5.0888,5.0925,5.1034,5.0874,5.0874,5.0906,5.114,5.1176,5.1197,5.1004,5.1007,5.101,5.1141,0,5.0919,5.0993,5.0954,5.1034,5.1063,5.1001,5.104,5.1038,5.1021,5.1045,5.1026,5.1052,5.0994,5.0997,5.1032,5.1013,5.108,5.1003,5.1039,5.1041,5.1043,5.1219,5.1256,5.138,5.1157,5.116,5.1162,0,5.1073,5.1085,5.1168,5.1154,5.1165,5.1201,5.1213,5.1236,5.1234,5.1219,5.1227,5.1187,5.1231,5.1163,5.1224,5.1172,5.1185,5.1179,5.1182,5.1184,5.1109,5.1227,5.1418,5.1438,5.1188,5.1186,5.1184,0,5.1206,5.1241,5.1296,5.1299,5.1285,5.1312,5.1307,5.1301,5.1314,5.1325,5.1333,5.135,5.1359,5.1373,5.1339,5.1292,5.1406,5.1334,5.1396,5.1397,5.1422,5.1421,5.162,5.143,5.1429,5.1429,5.1429,0,5.135,5.1403,5.1356,5.1389,5.1448,5.1405,5.1464,5.1453,5.1449,5.1481,5.1428,5.1458,5.1411,5.1438,5.1412,5.1468,5.1472,5.1462,5.1455,5.1467,5.1469,5.1475,5.1466,5.1434,5.1433,5.1432,5.1431,0,5.1507,5.1477,5.1533,5.1516,5.1513,5.1557,5.1542,5.1574,5.1554,5.1595,5.1602,5.1572,5.1601,5.1568,5.1594,5.1577,5.1653,5.1632,5.1654,5.1648,5.1712,5.1707,5.1923,5.1949,5.1741,5.1743,5.1745,0,5.1601,5.1641,5.1629,5.1646,5.1645,5.1674,5.1687,5.1646,5.1662,5.1665,5.1697,5.1721,5.1739,5.1788,5.1769,5.1789,5.1769,5.1843,5.1772,5.1784,5.1772,5.1771,5.1775,5.1858,5.186,5.1862,5.1864,0,5.1772,5.1756,5.1777,5.1794,5.1812,5.1823,5.1831,5.1848,5.1806,5.1827,5.1857,5.1871,5.1898,5.1924,5.1939,5.1935,5.1894,5.1887,5.1903,5.1916,5.1928,5.1924,5.1694,5.1882,5.188,5.1879,5.1878,5.1877,5.1901,5.1935,5.1932,5.1959,5.196,5.1969,5.1999,5.1984,5.2007,5.2027,5.2002,5.2039,5.2038,5.2055,5.2056,5.2085,5.2053,5.2075,5.2081,5.2088,5.2098,5.1923,5.2087,5.2087,5.2086,5.2086,5.2085,0,5.207,5.2066,5.2091,5.2104,5.2126,5.2085,5.2092,5.2113,5.2146,5.2149,5.2168,5.2203,5.2229,5.2212,5.2234,5.2261,5.2243,5.2268,5.2266,5.2267,5.2124,5.2109,5.2283,5.2283,5.2283,5.2283,5.2283,5.2283,5.2161,5.2217,5.2201,5.2258,5.2254,5.229,5.2298,5.2306,5.2309,5.2351,5.2372,5.2361,5.2357,5.2379,5.2401,5.2396,5.2407,5.244,5.2428,5.2296,5.2276,5.2258,5.2243,5.2442,5.2443,5.2568,5.2569,5.257]}]]